Location: Caltech
(34.1382°N, 118.1253°W)
Time: 02:39:35
(UTC-07:00)

PCSat - Visible Passes

Search period start: 23 October 2017 00:00
Search period end: 02 November 2017 00:00
Orbit: 786 x 794 km, 67.0° (Epoch: 22 October)

Date Brightness Start Highest point End Pass type
(mag) Time Alt. Az. Time Alt. Az. Time Alt. Az.
23 Oct 13.2 06:14:39 10° ESE 06:16:14 11° ESE 06:17:49 10° E visible
23 Oct 12.5 18:29:15 10° NW 18:33:26 23° WSW 18:37:36 10° SSW visible
26 Oct 11.3 06:21:25 10° S 06:26:21 37° ESE 06:31:20 10° NE visible
27 Oct 11.9 05:51:11 10° SSE 05:55:35 26° ESE 06:00:02 10° NE visible
28 Oct 12.4 05:21:17 10° SSE 05:24:52 18° ESE 05:28:26 10° ENE visible
29 Oct 12.6 04:52:08 10° SE 04:54:10 12° ESE 04:56:12 10° E visible
29 Oct 9.5 06:31:28 10° SSW 06:36:52 70° WNW 06:42:17 10° NNE visible
30 Oct 9.6 06:00:34 10° SSW 06:05:58 83° ESE 06:11:25 10° NNE visible
31 Oct 10.2 05:29:50 10° S 05:35:07 57° ESE 05:40:26 10° NE visible
01 Nov 10.8 04:59:18 10° S 05:04:19 40° ESE 05:09:20 10° NE visible
01 Nov 10.6 06:43:24 10° WSW 06:47:47 25° NW 06:52:11 10° N visible
